Terminal Aerodrome Forecast
Issued by NWS

Home | Current Version | Previous Version | Text Only | Print | Product List | Glossary On
Versions: 1 2 3 4 5 6 7 8 9 10 11 12 13 14 15 16 17 18 19 20 21
408
FTUS43 KPAH 251903 AAA
TAFCGI
TAF AMD
KCGI 251903Z 2519/2618 20006KT P6SM VCTS SCT022CB BKN250
      TEMPO 2519/2521 VRB10G20KT 2SM +TSRA BKN022CB
     FM260100 VRB03KT P6SM BKN150
     FM260900 00000KT 3SM BR BKN080
     FM261400 20003KT P6SM SCT020=

USA.gov is the U.S. government's official web portal to all federal, state and local government web resources and services.